Вернуться в каталог

CZ-3C DEB

АктивенGTO
NORAD 40207·DEBRIS·🇨🇳 China

Запущен Feb 24, 2012 с Xichang Satellite Launch Center

Loading…

TLE

УстаревшееSource: Space-Track

Эпоха: Sep 11, 2026, 08:40 UTC

1 40207U 12008S   26254.36125535 -.00000201  00000-0  17037-3 0  9998
2 40207  19.1391 280.0233 7202543  76.8935 348.4259  2.24301892 97358

Отслеживайте CZ-3C DEB в реальном времени с AllMySat

Download on the App Store